Tracking 28790 objects as of 19-Apr-2024
HD Live streaming from Space Station
objects crossing your sky now

DELTA 1 DEB

Track DELTA 1 DEB now!
10-day predictions


NORAD ID: 42653
Int'l Code: 1975-052MN
Perigee: 1,098.9 km
Apogee: 1,203.3 km
Inclination: 99.7 °
Period: 108.2 minutes
Semi major axis: 7522 km
RCS: Unknown
Launch date: June 12, 1975
Source: United States (US)
Launch site: AIR FORCE WESTERN TEST RANGE (AFWTR)

Note: This is SATELLITE DEBRIS
Your satellite tracking list
Your tracking list is empty




NASA's NSSDC Master Catalog

Two Line Element Set (TLE):
1 42653U 75052MN  24108.32891413  .00000034  00000-0  15684-3 0  9999
2 42653  99.6919 285.9595 0069343  91.1041  29.0320 13.30745358505307
Source of the keplerian elements: AFSPC